Location: Hokitika
(42.7170°S, 170.9670°E)
Time: 22:10:42
(UTC+13:00)

Cosmos 1606 - Pass Details

Date: 24 January 2019
Orbit: 504 x 528 km, 82.5° (Epoch: 15 October)

Event Time Altitude Azimuth Distance (km) Brightness Sun altitude
Exits shadow 23:21:30 55° 28° (NNE) 655 2.8 -19.5°
Maximum altitude 23:22:12 69° 84° (E) 581 2.7 -19.5°
Drops below altitude 10° 23:26:10 10° 167° (SSE) 1,810 6.0 -20.0°
Sets 23:28:20 0° 169° (S) 2,706 7.0 -20.2°
